Flag for Germany Weather past 2 weeks in Neumünster, Schleswig-Holstein, Germany

Now
47 °F

Sunny.


Feels Like: 47 °F
Forecast: 36 / 54 °F
Wind: 2 mph from Northwest

Location: Itzehoe

Current Time: Apr 28, 2015 at 12:35:23 PM

Latest Report: Apr 28, 2015 at 10:00 AM


Visibility: 25 mi

Pressure: 29.91 "Hg

Humidity: 61%

Dew point: 34 °F

Location of NeumünsterLocation

Historic Weather in Neumünster — Graph

°F

Neumünster temperature yesterday

Maximum temperature yesterday: 51 °F (at 3:00 PM)
Minimum temperature yesterday: 42 °F (at 10:00 PM)
Average temperature yesterday: 45 °F

Past Weeks' High & Low Weather Summary

 TemperatureHumidityPressure
High63 °F (Apr 20, 6:00 PM)100% (Apr 20, 6:00 AM)30.39 "Hg (Apr 20, 6:00 AM)
Low30 °F (Apr 28, 6:00 AM)37% (Apr 20, 3:00 PM)29.68 "Hg (Apr 25, 7:00 PM)
Average47 °F77%30.07 "Hg
* Reported Apr 13 10:00 AM — Apr 28 10:00 AM, Neumünster, Weather by CustomWeather, © 2015

Note: Actual official high and low records may vary slightly from our data, if they occured in-between our weather recording intervals... More about our weather records

Advertising

Neumünster weather history for previous 24 hours

 ConditionsComfort  
Time TempWeatherWind HumidityBarometerVisibility
10:00 AM
Tue, Apr 28
47 °FSunny.2 mph61%29.91 "Hg25 mi
9:00 AM43 °FPartly sunny.1 mph71%29.90 "Hg22 mi
7:00 AM31 °FSunny.No wind97%29.88 "Hg2 mi
6:00 AM30 °FSunny.No wind98%29.86 "Hg4 mi
4:00 AM30 °FClear.1 mph98%29.85 "Hg11 mi
3:00 AM31 °FClear.No wind98%29.85 "Hg6 mi
1:00 AM34 °FClear.1 mph91%29.86 "Hg19 mi
12:00 AM38 °FPassing clouds.1 mph78%29.84 "Hg25 mi
10:00 PM
Mon, Apr 27
42 °FOvercast.3 mph67%29.83 "Hg34 mi
9:00 PM43 °FPassing clouds.3 mph64%29.82 "Hg34 mi
7:00 PM48 °FPassing clouds.6 mph56%29.79 "Hg25 mi
6:00 PM50 °FOvercast.6 mph59%29.79 "Hg19 mi
4:00 PM51 °FPassing clouds.5 mph54%29.78 "Hg25 mi
3:00 PM51 °FPassing clouds.5 mph55%29.77 "Hg25 mi
1:00 PM50 °FScattered clouds.3 mph55%29.76 "Hg28 mi
12:00 PM49 °FPartly sunny.5 mph55%29.75 "Hg28 mi
Weather by CustomWeather, © 2015

See weather overviewHow to use our weather pages